| time (UTC) | temp F | wind direction | speed MPH | gust MPH | rain 1hr in | rain 24hr in | rain mn in | humidity % | barometer mb |
| 20260904210031 | 98 | 250 | 1.0 | 2.0 | 0.00 | 0.00 | 0.00 | 47 | 1012.1 |
| 20260904205500 | 99 | 132 | 0.0 | 4.0 | 0.00 | 0.00 | 0.00 | 47 | 1012.1 |
| 20260904205024 | 99 | 84 | 2.0 | 4.0 | 0.00 | 0.00 | 0.00 | 46 | 1012.1 |
| 20260904204443 | 99 | 129 | 0.0 | 3.0 | 0.00 | 0.00 | 0.00 | 48 | 1012.1 |
| 20260904203457 | 99 | 275 | 1.0 | 3.0 | 0.00 | 0.00 | 0.00 | 48 | 1012.3 |
| 20260904203020 | 99 | 80 | 1.0 | 3.0 | 0.00 | 0.00 | 0.00 | 47 | 1012.3 |
| 20260904202429 | 99 | 96 | 0.0 | 3.0 | 0.00 | 0.00 | 0.00 | 48 | 1012.5 |
| 20260904202010 | 99 | 97 | 0.0 | 3.0 | 0.00 | 0.00 | 0.00 | 49 | 1012.6 |
| 20260904200956 | 99 | 108 | 0.0 | 4.0 | 0.00 | 0.00 | 0.00 | 47 | 1012.7 |
| 20260904195946 | 98 | 284 | 0.0 | 2.0 | 0.00 | 0.00 | 0.00 | 48 | 1012.9 |
| 20260904194958 | 97 | 147 | 0.0 | 2.0 | 0.00 | 0.00 | 0.00 | 49 | 1013.0 |
| 20260904193956 | 98 | 105 | 1.0 | 5.0 | 0.00 | 0.00 | 0.00 | 47 | 1013.1 |
| 20260904192959 | 98 | 84 | 1.0 | 4.0 | 0.00 | 0.00 | 0.00 | 47 | 1013.3 |
| 20260904191943 | 97 | 278 | 0.0 | 6.0 | 0.00 | 0.00 | 0.00 | 48 | 1013.4 |
| 20260904191517 | 98 | 209 | 1.0 | 6.0 | 0.00 | 0.00 | 0.00 | 48 | 1013.4 |
| 20260904190449 | 98 | 71 | 0.0 | 3.0 | 0.00 | 0.00 | 0.00 | 50 | 1013.5 |
| 20260904185511 | 97 | 99 | 1.0 | 3.0 | 0.00 | 0.00 | 0.00 | 48 | 1013.5 |
| 20260904185026 | 98 | 225 | 0.0 | 2.0 | 0.00 | 0.00 | 0.00 | 51 | 1013.7 |
| 20260904184435 | 97 | 223 | 0.0 | 3.0 | 0.00 | 0.00 | 0.00 | 50 | 1013.7 |
| 20260904184001 | 98 | 272 | 1.0 | 2.0 | 0.00 | 0.00 | 0.00 | 48 | 1013.7 |
| 20260904182956 | 97 | 121 | 0.0 | 1.0 | 0.00 | 0.00 | 0.00 | 53 | 1013.8 |
| 20260904181951 | 96 | 338 | 0.0 | 3.0 | 0.00 | 0.00 | 0.00 | 55 | 1014.0 |
| 20260904181551 | 95 | 267 | 2.0 | 3.0 | 0.00 | 0.00 | 0.00 | 52 | 1014.1 |
| 20260904180502 | 95 | 254 | 1.0 | 3.0 | 0.00 | 0.00 | 0.00 | 55 | 1014.2 |
| 20260904175447 | 94 | 285 | 0.0 | 2.0 | 0.00 | 0.00 | 0.00 | 57 | 1014.4 |
| 20260904174442 | 92 | 275 | 1.0 | 3.0 | 0.00 | 0.00 | 0.00 | 59 | 1014.4 |
| 20260904174027 | 92 | 249 | 1.0 | 3.0 | 0.00 | 0.00 | 0.00 | 58 | 1014.5 |
| 20260904173442 | 93 | 269 | 1.0 | 2.0 | 0.00 | 0.00 | 0.00 | 59 | 1014.6 |
| 20260904172435 | 93 | 350 | 0.0 | 2.0 | 0.00 | 0.00 | 0.00 | 61 | 1014.6 |
| 20260904172011 | 94 | 279 | 1.0 | 2.0 | 0.00 | 0.00 | 0.00 | 59 | 1014.8 |
| 20260904171441 | 94 | 82 | 0.0 | 4.0 | 0.00 | 0.00 | 0.00 | 59 | 1014.9 |
| 20260904170455 | 93 | 137 | 0.0 | 0.0 | 0.00 | 0.00 | 0.00 | 60 | 1015.0 |
| 20260904170025 | 93 | 140 | 0.0 | 0.0 | 0.00 | 0.00 | 0.00 | 58 | 1015.1 |
| 20260904165450 | 92 | 140 | 0.0 | 1.0 | 0.00 | 0.00 | 0.00 | 61 | 1015.0 |
| 20260904165024 | 92 | 162 | 0.0 | 4.0 | 0.00 | 0.00 | 0.00 | 61 | 1015.1 |
| 20260904164432 | 93 | 88 | 1.0 | 4.0 | 0.00 | 0.00 | 0.00 | 59 | 1015.1 |
| 20260904164015 | 94 | 84 | 1.0 | 3.0 | 0.00 | 0.00 | 0.00 | 58 | 1015.2 |
| 20260904163528 | 94 | 86 | 0.0 | 2.0 | 0.00 | 0.00 | 0.00 | 60 | 1015.2 |
| 20260904162937 | 93 | 97 | 0.0 | 2.0 | 0.00 | 0.00 | 0.00 | 60 | 1015.2 |
| 20260904161955 | 91 | 82 | 1.0 | 2.0 | 0.00 | 0.00 | 0.00 | 63 | 1015.1 |
| 20260904160957 | 91 | 267 | 0.0 | 2.0 | 0.00 | 0.00 | 0.00 | 63 | 1015.1 |
| 20260904160526 | 91 | 219 | 0.0 | 3.0 | 0.00 | 0.00 | 0.00 | 66 | 1015.1 |
| 20260904155944 | 90 | 87 | 1.0 | 3.0 | 0.00 | 0.00 | 0.00 | 65 | 1015.1 |
| 20260904155512 | 90 | 97 | 0.0 | 3.0 | 0.00 | 0.00 | 0.00 | 68 | 1015.0 |
| 20260904154941 | 89 | 263 | 0.0 | 2.0 | 0.00 | 0.00 | 0.00 | 70 | 1015.1 |
| 20260904153957 | 88 | 279 | 1.0 | 2.0 | 0.00 | 0.00 | 0.00 | 70 | 1015.1 |
| 20260904153521 | 88 | 211 | 0.0 | 1.0 | 0.00 | 0.00 | 0.00 | 73 | 1015.1 |
| 20260904153001 | 87 | 178 | 0.0 | 1.0 | 0.00 | 0.00 | 0.00 | 75 | 1015.1 |
| 20260904151955 | 86 | 49 | 0.0 | 2.0 | 0.00 | 0.00 | 0.00 | 79 | 1015.1 |
| 20260904151522 | 85 | 90 | 0.0 | 2.0 | 0.00 | 0.00 | 0.00 | 81 | 1015.0 |
| 20260904150953 | 84 | 93 | 0.0 | 3.0 | 0.00 | 0.00 | 0.00 | 82 | 1015.0 |
| 20260904150522 | 84 | 93 | 1.0 | 4.0 | 0.00 | 0.00 | 0.00 | 83 | 1015.0 |
| 20260904145934 | 83 | 96 | 1.0 | 4.0 | 0.00 | 0.00 | 0.00 | 84 | 1015.0 |
| 20260904145522 | 83 | 85 | 0.0 | 0.0 | 0.00 | 0.00 | 0.00 | 85 | 1015.0 |
| 20260904144941 | 83 | 84 | 0.0 | 0.0 | 0.00 | 0.00 | 0.00 | 86 | 1015.1 |
| 20260904144527 | 82 | 209 | 0.0 | 0.0 | 0.00 | 0.00 | 0.00 | 87 | 1015.1 |
| 20260904144000 | 82 | 211 | 0.0 | 0.0 | 0.00 | 0.00 | 0.00 | 87 | 1015.1 |
| 20260904143531 | 82 | 209 | 0.0 | 0.0 | 0.00 | 0.00 | 0.00 | 87 | 1015.1 |
| 20260904142459 | 81 | 90 | 0.0 | 0.0 | 0.00 | 0.00 | 0.00 | 88 | 1015.0 |
| 20260904142033 | 81 | 252 | 0.0 | 0.0 | 0.00 | 0.00 | 0.00 | 89 | 1015.0 |
| 20260904141005 | 80 | 251 | 0.0 | 0.0 | 0.00 | 0.00 | 0.00 | 90 | 1015.0 |
| 20260904140002 | 80 | 251 | 0.0 | 0.0 | 0.00 | 0.00 | 0.00 | 90 | 1014.9 |
| 20260904134455 | 79 | 251 | 0.0 | 0.0 | 0.00 | 0.00 | 0.00 | 92 | 1014.8 |
| 20260904133512 | 79 | 251 | 0.0 | 0.0 | 0.00 | 0.00 | 0.00 | 93 | 1014.8 |
| 20260904132944 | 78 | 252 | 0.0 | 0.0 | 0.00 | 0.00 | 0.00 | 93 | 1014.8 |
| 20260904132528 | 78 | 223 | 0.0 | 0.0 | 0.00 | 0.00 | 0.00 | 94 | 1014.8 |
| 20260904132009 | 77 | 223 | 0.0 | 0.0 | 0.00 | 0.00 | 0.00 | 94 | 1014.7 |
| 20260904131429 | 77 | 222 | 0.0 | 0.0 | 0.00 | 0.00 | 0.00 | 95 | 1014.7 |
| 20260904131004 | 77 | 220 | 0.0 | 0.0 | 0.00 | 0.00 | 0.00 | 95 | 1014.6 |
| 20260904130004 | 76 | 221 | 0.0 | 0.0 | 0.00 | 0.00 | 0.00 | 95 | 1014.5 |
| 20260904125001 | 76 | 136 | 0.0 | 0.0 | 0.00 | 0.00 | 0.00 | 95 | 1014.4 |
| 20260904123946 | 75 | 136 | 0.0 | 0.0 | 0.00 | 0.00 | 0.00 | 95 | 1014.3 |
| 20260904122949 | 75 | 136 | 0.0 | 0.0 | 0.00 | 0.00 | 0.00 | 95 | 1014.3 |
| 20260904122520 | 75 | 136 | 0.0 | 0.0 | 0.00 | 0.00 | 0.00 | 95 | 1014.2 |
| 20260904121939 | 75 | 136 | 0.0 | 0.0 | 0.00 | 0.00 | 0.00 | 95 | 1014.2 |
| 20260904120944 | 75 | 136 | 0.0 | 0.0 | 0.00 | 0.00 | 0.00 | 95 | 1014.2 |
| 20260904120022 | 75 | 136 | 0.0 | 0.0 | 0.00 | 0.00 | 0.00 | 94 | 1014.0 |
| 20260904115450 | 75 | 136 | 0.0 | 0.0 | 0.00 | 0.00 | 0.00 | 94 | 1013.9 |
| 20260904114457 | 75 | 136 | 0.0 | 0.0 | 0.00 | 0.00 | 0.00 | 94 | 1013.9 |
| 20260904113452 | 75 | 136 | 0.0 | 0.0 | 0.00 | 0.00 | 0.00 | 94 | 1013.9 |
| 20260904112454 | 75 | 136 | 0.0 | 0.0 | 0.00 | 0.00 | 0.00 | 94 | 1013.9 |
| 20260904111953 | 75 | 136 | 0.0 | 0.0 | 0.00 | 0.00 | 0.00 | 94 | 1014.0 |
| 20260904110941 | 75 | 136 | 0.0 | 0.0 | 0.00 | 0.00 | 0.00 | 94 | 1013.9 |
| 20260904110512 | 75 | 136 | 0.0 | 0.0 | 0.00 | 0.00 | 0.00 | 93 | 1013.8 |
| 20260904105454 | 75 | 136 | 0.0 | 0.0 | 0.00 | 0.00 | 0.00 | 93 | 1013.9 |
| 20260904104447 | 76 | 136 | 0.0 | 0.0 | 0.00 | 0.00 | 0.00 | 93 | 1013.9 |
| 20260904104016 | 76 | 136 | 0.0 | 0.0 | 0.00 | 0.00 | 0.00 | 93 | 1013.9 |
| 20260904102955 | 76 | 136 | 0.0 | 0.0 | 0.00 | 0.00 | 0.00 | 93 | 1013.8 |
| 20260904102511 | 76 | 136 | 0.0 | 0.0 | 0.00 | 0.00 | 0.00 | 93 | 1013.8 |
| 20260904101959 | 76 | 136 | 0.0 | 0.0 | 0.00 | 0.00 | 0.00 | 93 | 1013.8 |
| 20260904100943 | 76 | 136 | 0.0 | 0.0 | 0.00 | 0.09 | 0.00 | 93 | 1013.6 |
| 20260904095949 | 76 | 136 | 0.0 | 0.0 | 0.00 | 0.09 | 0.00 | 93 | 1013.5 |
| 20260904094949 | 76 | 136 | 0.0 | 0.0 | 0.00 | 0.09 | 0.00 | 93 | 1013.4 |
| 20260904093948 | 76 | 136 | 0.0 | 0.0 | 0.00 | 0.09 | 0.00 | 93 | 1013.2 |
| 20260904092947 | 76 | 136 | 0.0 | 0.0 | 0.00 | 0.09 | 0.00 | 93 | 1013.2 |
| 20260904091954 | 76 | 136 | 0.0 | 0.0 | 0.00 | 0.09 | 0.00 | 93 | 1013.1 |
| 20260904091001 | 76 | 136 | 0.0 | 0.0 | 0.00 | 0.71 | 0.00 | 93 | 1013.2 |
| 20260904090009 | 76 | 136 | 0.0 | 0.0 | 0.00 | 0.71 | 0.00 | 93 | 1013.2 |
| 20260904085532 | 76 | 136 | 0.0 | 0.0 | 0.00 | 0.71 | 0.00 | 92 | 1013.2 |
| 20260904085048 | 76 | 136 | 0.0 | 0.0 | 0.00 | 0.71 | 0.00 | 92 | 1013.2 |
| 20260904084445 | 76 | 136 | 0.0 | 0.0 | 0.00 | 0.71 | 0.00 | 92 | 1013.2 |
| 20260904083506 | 76 | 136 | 0.0 | 0.0 | 0.00 | 0.71 | 0.00 | 92 | 1013.2 |
| 20260904082449 | 76 | 136 | 0.0 | 0.0 | 0.00 | 0.71 | 0.00 | 92 | 1013.1 |
| 20260904081453 | 76 | 136 | 0.0 | 0.0 | 0.00 | 0.81 | 0.00 | 92 | 1013.1 |
| 20260904080448 | 76 | 136 | 0.0 | 0.0 | 0.00 | 0.81 | 0.00 | 92 | 1013.1 |
| 20260904075437 | 76 | 136 | 0.0 | 0.0 | 0.00 | 0.81 | 0.00 | 92 | 1013.0 |
| 20260904074951 | 76 | 136 | 0.0 | 0.0 | 0.00 | 0.81 | 0.00 | 92 | 1013.0 |
| 20260904073952 | 76 | 136 | 0.0 | 0.0 | 0.00 | 0.81 | 0.00 | 92 | 1013.0 |
| 20260904073005 | 76 | 136 | 0.0 | 0.0 | 0.00 | 0.81 | 0.00 | 92 | 1013.0 |
| 20260904072004 | 76 | 136 | 0.0 | 0.0 | 0.00 | 0.81 | 0.00 | 92 | 1013.0 |
| 20260904070949 | 77 | 136 | 0.0 | 0.0 | 0.00 | 1.67 | 0.00 | 91 | 1013.0 |
| 20260904065939 | 77 | 136 | 0.0 | 0.0 | 0.00 | 1.67 | 0.00 | 91 | 1013.1 |
| 20260904065455 | 77 | 136 | 0.0 | 0.0 | 0.00 | 1.67 | 0.00 | 91 | 1013.1 |
| 20260904064956 | 77 | 136 | 0.0 | 0.0 | 0.00 | 1.67 | 0.00 | 90 | 1013.2 |
| 20260904064436 | 77 | 136 | 0.0 | 0.0 | 0.00 | 1.67 | 0.00 | 90 | 1013.2 |
| 20260904063954 | 77 | 136 | 0.0 | 0.0 | 0.00 | 1.67 | 0.00 | 90 | 1013.2 |
| 20260904063440 | 77 | 136 | 0.0 | 0.0 | 0.00 | 1.67 | 0.00 | 90 | 1013.2 |
| 20260904062937 | 77 | 136 | 0.0 | 0.0 | 0.00 | 1.67 | 0.00 | 90 | 1013.1 |
| 20260904062454 | 77 | 136 | 0.0 | 0.0 | 0.00 | 1.67 | 0.00 | 89 | 1013.1 |
| 20260904061955 | 77 | 136 | 0.0 | 0.0 | 0.00 | 1.67 | 0.00 | 89 | 1013.1 |
| 20260904061455 | 77 | 136 | 0.0 | 0.0 | 0.00 | 1.88 | 0.00 | 89 | 1013.1 |
| 20260904060945 | 78 | 136 | 0.0 | 0.0 | 0.00 | 1.88 | 0.00 | 88 | 1013.1 |
| 20260904060430 | 78 | 136 | 0.0 | 0.0 | 0.00 | 1.88 | 0.00 | 88 | 1013.0 |
| 20260904055957 | 78 | 136 | 0.0 | 0.0 | 0.00 | 1.88 | 0.00 | 88 | 1013.0 |
| 20260904055428 | 78 | 136 | 0.0 | 0.0 | 0.00 | 1.88 | 0.00 | 88 | 1013.0 |
| 20260904054935 | 78 | 136 | 0.0 | 0.0 | 0.00 | 1.88 | 0.00 | 87 | 1012.9 |
| 20260904054439 | 78 | 136 | 0.0 | 0.0 | 0.00 | 1.88 | 0.00 | 87 | 1012.9 |
| 20260904053953 | 78 | 136 | 0.0 | 0.0 | 0.00 | 1.88 | 0.00 | 87 | 1012.9 |
| 20260904053456 | 78 | 136 | 0.0 | 0.0 | 0.00 | 1.88 | 0.00 | 86 | 1012.8 |
| 20260904052956 | 78 | 136 | 0.0 | 0.0 | 0.00 | 1.88 | 0.00 | 86 | 1012.8 |
| 20260904052447 | 78 | 136 | 0.0 | 0.0 | 0.00 | 1.88 | 0.00 | 86 | 1012.9 |
| 20260904051930 | 79 | 136 | 0.0 | 0.0 | 0.00 | 1.88 | 0.00 | 85 | 1012.9 |
| 20260904051449 | 79 | 136 | 0.0 | 0.0 | 0.00 | 1.89 | 1.88 | 85 | 1012.9 |
| 20260904050940 | 79 | 136 | 0.0 | 0.0 | 0.00 | 1.89 | 1.88 | 85 | 1012.9 |
| 20260904050457 | 79 | 136 | 0.0 | 0.0 | 0.00 | 1.89 | 1.88 | 85 | 1012.9 |
| 20260904050022 | 79 | 136 | 0.0 | 0.0 | 0.00 | 1.89 | 1.88 | 84 | 1013.0 |
| 20260904044955 | 79 | 136 | 0.0 | 0.0 | 0.00 | 1.89 | 1.88 | 83 | 1013.0 |
| 20260904044525 | 79 | 136 | 0.0 | 0.0 | 0.00 | 1.89 | 1.88 | 83 | 1013.0 |
| 20260904043953 | 79 | 136 | 0.0 | 0.0 | 0.00 | 1.89 | 1.88 | 83 | 1013.1 |
| 20260904042949 | 79 | 136 | 0.0 | 0.0 | 0.00 | 1.89 | 1.88 | 82 | 1013.1 |
| 20260904042430 | 80 | 136 | 0.0 | 0.0 | 0.00 | 1.89 | 1.88 | 82 | 1013.2 |
| 20260904041955 | 80 | 136 | 0.0 | 0.0 | 0.00 | 1.89 | 1.88 | 81 | 1013.2 |
| 20260904040954 | 80 | 136 | 0.0 | 0.0 | 0.00 | 1.96 | 1.88 | 81 | 1013.1 |
| 20260904035953 | 80 | 136 | 0.0 | 0.0 | 0.00 | 1.96 | 1.88 | 81 | 1013.1 |
| 20260904035526 | 80 | 136 | 0.0 | 0.0 | 0.00 | 1.96 | 1.88 | 81 | 1013.1 |
| 20260904034939 | 80 | 111 | 0.0 | 0.0 | 0.00 | 1.96 | 1.88 | 80 | 1013.1 |
| 20260904033944 | 80 | 111 | 0.0 | 0.0 | 0.00 | 1.96 | 1.88 | 80 | 1013.1 |
| 20260904032939 | 81 | 112 | 0.0 | 0.0 | 0.00 | 1.96 | 1.88 | 79 | 1013.1 |
| 20260904032529 | 81 | 111 | 0.0 | 0.0 | 0.00 | 1.96 | 1.88 | 79 | 1013.2 |
| 20260904031936 | 81 | 111 | 0.0 | 0.0 | 0.00 | 1.96 | 1.88 | 79 | 1013.2 |
| 20260904031514 | 81 | 111 | 0.0 | 1.0 | 0.00 | 2.27 | 1.88 | 79 | 1013.2 |
| 20260904030932 | 81 | 111 | 0.0 | 1.0 | 0.00 | 2.27 | 1.88 | 78 | 1013.2 |
| 20260904025954 | 81 | 130 | 0.0 | 0.0 | 0.00 | 2.27 | 1.88 | 78 | 1013.0 |
| 20260904025438 | 81 | 130 | 0.0 | 0.0 | 0.00 | 2.27 | 1.88 | 78 | 1013.0 |
| 20260904025007 | 82 | 89 | 0.0 | 0.0 | 0.00 | 2.27 | 1.88 | 78 | 1012.9 |
| 20260904024512 | 82 | 89 | 0.0 | 1.0 | 0.00 | 2.27 | 1.88 | 78 | 1012.9 |
| 20260904023455 | 82 | 89 | 0.0 | 0.0 | 0.00 | 2.27 | 1.88 | 78 | 1012.8 |
| 20260904023044 | 82 | 89 | 0.0 | 0.0 | 0.00 | 2.27 | 1.88 | 78 | 1012.7 |
| 20260904022432 | 82 | 89 | 0.0 | 0.0 | 0.00 | 2.27 | 1.88 | 78 | 1012.6 |
| 20260904021434 | 83 | 89 | 0.0 | 1.0 | 0.00 | 2.45 | 1.88 | 77 | 1012.5 |
| 20260904021015 | 83 | 89 | 0.0 | 0.0 | 0.00 | 2.45 | 1.88 | 76 | 1012.4 |
| 20260904015954 | 83 | 86 | 0.0 | 0.0 | 0.00 | 2.45 | 1.88 | 76 | 1012.4 |
| 20260904014957 | 84 | 86 | 0.0 | 0.0 | 0.00 | 2.45 | 1.88 | 75 | 1012.3 |
| 20260904013945 | 84 | 86 | 0.0 | 0.0 | 0.00 | 2.45 | 1.88 | 74 | 1012.1 |
| 20260904013521 | 84 | 86 | 0.0 | 0.0 | 0.00 | 2.45 | 1.88 | 73 | 1011.9 |
| 20260904013018 | 84 | 86 | 0.0 | 0.0 | 0.00 | 2.45 | 1.88 | 73 | 1011.9 |
| 20260904012531 | 84 | 86 | 0.0 | 0.0 | 0.00 | 2.45 | 1.88 | 72 | 1011.7 |
| 20260904011508 | 85 | 86 | 0.0 | 0.0 | 0.00 | 2.45 | 1.88 | 71 | 1011.7 |
| 20260904011032 | 85 | 86 | 0.0 | 0.0 | 0.00 | 2.45 | 1.88 | 70 | 1011.7 |
| 20260904010003 | 86 | 86 | 0.0 | 0.0 | 0.00 | 2.45 | 1.88 | 69 | 1011.5 |
| 20260904005516 | 86 | 86 | 0.0 | 0.0 | 0.00 | 2.45 | 1.88 | 68 | 1011.6 |
| 20260904004459 | 87 | 94 | 0.0 | 0.0 | 0.00 | 2.45 | 1.88 | 66 | 1011.5 |
| 20260904003432 | 88 | 94 | 0.0 | 0.0 | 0.00 | 2.45 | 1.88 | 65 | 1011.4 |
| 20260904002952 | 89 | 94 | 0.0 | 0.0 | 0.00 | 2.45 | 1.88 | 64 | 1011.3 |
| 20260904001947 | 90 | 93 | 0.0 | 1.0 | 0.00 | 2.45 | 1.88 | 62 | 1011.3 |
| 20260904001526 | 91 | 93 | 0.0 | 2.0 | 0.00 | 2.45 | 1.88 | 61 | 1011.3 |
| 20260904000954 | 91 | 91 | 1.0 | 2.0 | 0.00 | 2.45 | 1.88 | 60 | 1011.3 |
| 20260903235932 | 91 | 236 | 0.0 | 1.0 | 0.00 | 2.45 | 1.88 | 62 | 1011.3 |
| 20260903234951 | 90 | 270 | 0.0 | 2.0 | 0.00 | 2.45 | 1.88 | 62 | 1011.2 |
| 20260903233949 | 90 | 82 | 0.0 | 3.0 | 0.00 | 2.45 | 1.88 | 61 | 1011.3 |
| 20260903233001 | 90 | 264 | 0.0 | 1.0 | 0.00 | 2.45 | 1.88 | 61 | 1011.3 |
| 20260903231957 | 91 | 271 | 0.0 | 1.0 | 0.00 | 2.45 | 1.88 | 59 | 1011.2 |
| 20260903230955 | 92 | 322 | 0.0 | 2.0 | 0.00 | 2.45 | 1.88 | 58 | 1011.2 |
| 20260903225952 | 92 | 233 | 0.0 | 2.0 | 0.00 | 2.45 | 1.88 | 58 | 1011.3 |
| 20260903225504 | 93 | 245 | 0.0 | 2.0 | 0.00 | 2.45 | 1.88 | 57 | 1011.3 |
| 20260903225017 | 93 | 81 | 0.0 | 1.0 | 0.00 | 2.45 | 1.88 | 56 | 1011.4 |
| 20260903224513 | 93 | 288 | 0.0 | 2.0 | 0.00 | 2.45 | 1.88 | 56 | 1011.5 |
| 20260903223937 | 92 | 290 | 0.0 | 3.0 | 0.00 | 2.45 | 1.88 | 57 | 1011.4 |
| 20260903223511 | 93 | 300 | 0.0 | 3.0 | 0.00 | 2.45 | 1.88 | 55 | 1011.5 |
| 20260903222955 | 93 | 286 | 0.0 | 2.0 | 0.00 | 2.45 | 1.88 | 56 | 1011.5 |
| 20260903222525 | 93 | 103 | 1.0 | 2.0 | 0.00 | 2.45 | 1.88 | 57 | 1011.6 |
| 20260903221939 | 93 | 270 | 1.0 | 3.0 | 0.00 | 2.45 | 1.88 | 57 | 1011.6 |
| 20260903220954 | 93 | 188 | 0.0 | 3.0 | 0.00 | 2.45 | 1.88 | 57 | 1011.6 |
| 20260903220458 | 93 | 275 | 1.0 | 3.0 | 0.00 | 2.45 | 1.88 | 57 | 1011.6 |
| 20260903220026 | 93 | 267 | 1.0 | 3.0 | 0.00 | 2.45 | 1.88 | 55 | 1011.7 |
| 20260903215434 | 93 | 304 | 0.0 | 4.0 | 0.00 | 2.45 | 1.88 | 57 | 1011.7 |
| 20260903215022 | 93 | 240 | 2.0 | 4.0 | 0.00 | 2.45 | 1.88 | 55 | 1011.8 |
| 20260903214431 | 93 | 232 | 0.0 | 4.0 | 0.00 | 2.45 | 1.88 | 57 | 1011.8 |
| 20260903214003 | 94 | 276 | 2.0 | 4.0 | 0.00 | 2.45 | 1.88 | 55 | 1011.9 |
| 20260903212937 | 93 | 223 | 0.0 | 4.0 | 0.00 | 2.45 | 1.88 | 58 | 1011.9 |
| 20260903211945 | 92 | 275 | 1.0 | 4.0 | 0.00 | 2.45 | 1.88 | 58 | 1011.8 |
| 20260903211002 | 93 | 271 | 1.0 | 3.0 | 0.00 | 2.45 | 1.88 | 58 | 1011.8 |
| 20260903210436 | 93 | 270 | 1.0 | 4.0 | 0.00 | 2.45 | 1.88 | 57 | 1011.9 |